Location: Home
(42.5358°N, 72.7383°W)
Time: 20:39:45
(UTC-05:00)

Vanguard 2 Rocket - Pass Details

Date: 09 December 2021
Orbit: 554 x 3325 km, 32.9° (Epoch: 21 January)

Event Time Altitude Azimuth Distance (km) Brightness Sun altitude
Rises 18:28:41 0° 254° (WSW) 3,133 11.1 -23.3°
Reaches altitude 10° 18:30:50 10° 246° (WSW) 2,405 10.1 -23.7°
Maximum altitude 18:36:01 38° 179° (S) 1,629 8.2 -24.6°
Enters shadow 18:39:34 26° 134° (SE) 2,365 8.6 -25.3°
Drops below altitude 10° 18:44:25 10° 116° (ESE) 3,918 - -26.2°
Sets 18:48:55 0° 110° (ESE) 5,405 - -27.0°
